Location: Asheville, NC
(35.6000°N, 82.5500°W)
Time: 14:07:42
(UTC-05:00)

Hubble Space Telescope - Pass Details

Date: 08 October 2017
Orbit: 538 x 541 km, 28.5° (Epoch: 10 December)

Event Time Altitude Azimuth Distance (km) Brightness Sun altitude
Exits shadow 05:27:45 24° 149° (SSE) 1,135 2.5 -25.7°
Drops below altitude 10° 05:30:01 10° 122° (ESE) 1,785 4.0 -25.3°
Sets 05:32:28 0° 112° (ESE) 2,676 5.2 -24.8°
